QTR3R VGHS-OTHH

Flight info

Callsign QTR3R
Flight time N/A
Altitude 34000
Route IKOGU1D IKOGU A462 CEA G450 JJS A791 BPL L639 RASKI N881 KIPOL/N0496F360 L444 TOLDA M628 TULBU G652 TOKRA/N0511F280 Y511 LABDU T100 MIGMA M628 OBSEP/N0520F290 Y432 LADBO T142 LAEEB
Aircraft B77W/H-SDE1E2E3FGHIJ2J3J4J5M1RWXY/LB1D1

Departure

Time 2026-05-08 08:40
Airport Hazrat Shahjalal International Airport (VGHS)

Arrival

Time N/A
Airport Hamad International Airport (OTHH)
Time Latitude Longitude Altitude Speed Heading
2026-05-08 08:11 23.84570 90.40549 41 ft 0 kts 54°
2026-05-08 08:27 23.84569 90.40547 41 ft 2 kts 54°
2026-05-08 08:27 23.84553 90.40524 37 ft 4 kts 54°
2026-05-08 08:27 23.84539 90.40502 38 ft 4 kts 50°
2026-05-08 08:27 23.84522 90.40489 38 ft 4 kts 341°
2026-05-08 08:28 23.84500 90.40504 38 ft 4 kts 322°
2026-05-08 08:28 23.84495 90.40508 38 ft 0 kts 323°
2026-05-08 08:31 23.84498 90.40506 38 ft 2 kts 323°
2026-05-08 08:31 23.84517 90.40490 38 ft 5 kts 323°
2026-05-08 08:31 23.84552 90.40462 39 ft 8 kts 323°
2026-05-08 08:31 23.84604 90.40421 41 ft 10 kts 324°
2026-05-08 08:32 23.84663 90.40373 41 ft 9 kts 324°
2026-05-08 08:32 23.84694 90.40318 41 ft 9 kts 257°
2026-05-08 08:32 23.84655 90.40259 41 ft 10 kts 233°
2026-05-08 08:32 23.84657 90.40195 41 ft 10 kts 316°
2026-05-08 08:33 23.84710 90.40149 41 ft 10 kts 323°
2026-05-08 08:33 23.84774 90.40098 41 ft 14 kts 324°
2026-05-08 08:33 23.84864 90.40025 41 ft 16 kts 323°
2026-05-08 08:33 23.84956 90.39953 41 ft 16 kts 324°
2026-05-08 08:34 23.85048 90.39881 41 ft 16 kts 324°
2026-05-08 08:34 23.85138 90.39809 41 ft 16 kts 323°
2026-05-08 08:34 23.85230 90.39736 41 ft 16 kts 324°
2026-05-08 08:34 23.85322 90.39663 41 ft 16 kts 324°
2026-05-08 08:35 23.85413 90.39590 41 ft 16 kts 324°
2026-05-08 08:35 23.85505 90.39518 41 ft 16 kts 324°
2026-05-08 08:35 23.85597 90.39445 41 ft 16 kts 324°
2026-05-08 08:35 23.85687 90.39373 41 ft 16 kts 324°
2026-05-08 08:36 23.85765 90.39305 41 ft 10 kts 301°
2026-05-08 08:36 23.85754 90.39255 39 ft 7 kts 235°
2026-05-08 08:36 23.85727 90.39211 49 ft 7 kts 236°
2026-05-08 08:36 23.85700 90.39169 35 ft 7 kts 233°
2026-05-08 08:37 23.85667 90.39121 41 ft 10 kts 233°
2026-05-08 08:37 23.85625 90.39059 41 ft 10 kts 233°
2026-05-08 08:37 23.85583 90.38996 40 ft 10 kts 234°
2026-05-08 08:37 23.85541 90.38934 40 ft 10 kts 233°
2026-05-08 08:38 23.85504 90.38881 40 ft 6 kts 226°
2026-05-08 08:38 23.85485 90.38881 40 ft 2 kts 162°
2026-05-08 08:38 23.85469 90.38887 40 ft 2 kts 161°
2026-05-08 08:38 23.85453 90.38893 40 ft 2 kts 159°
2026-05-08 08:39 23.85437 90.38905 40 ft 6 kts 143°
2026-05-08 08:39 23.85279 90.39030 40 ft 62 kts 144°
2026-05-08 08:39 23.84714 90.39479 42 ft 137 kts 144°
2026-05-08 08:39 23.83759 90.40236 42 ft 199 kts 144°
2026-05-08 08:40 23.82623 90.41175 550 ft 207 kts 143°
2026-05-08 08:40 23.81434 90.42122 1125 ft 214 kts 144°
2026-05-08 08:40 23.80198 90.43065 1694 ft 221 kts 145°
2026-05-08 08:40 23.78894 90.44064 2072 ft 238 kts 143°
2026-05-08 08:41 23.77500 90.45172 2445 ft 253 kts 143°
2026-05-08 08:41 23.76064 90.46301 3063 ft 261 kts 144°
2026-05-08 08:41 23.74571 90.47499 3687 ft 270 kts 143°
2026-05-08 08:41 23.73033 90.48731 4408 ft 276 kts 144°
2026-05-08 08:42 23.71466 90.49973 5150 ft 278 kts 146°
2026-05-08 08:42 23.69733 90.50859 5756 ft 279 kts 173°
2026-05-08 08:42 23.67814 90.50689 6412 ft 279 kts 202°
2026-05-08 08:42 23.66206 90.49572 7051 ft 278 kts 227°
2026-05-08 08:43 23.64970 90.47948 7645 ft 280 kts 233°
2026-05-08 08:43 23.63757 90.46250 8280 ft 284 kts 233°
2026-05-08 08:43 23.62551 90.44569 8993 ft 285 kts 234°
2026-05-08 08:43 23.61316 90.42857 9702 ft 287 kts 234°
2026-05-08 08:44 23.60075 90.41134 10251 ft 294 kts 234°
2026-05-08 08:44 23.58759 90.39311 10430 ft 317 kts 233°
2026-05-08 08:44 23.57343 90.37355 10614 ft 339 kts 233°
2026-05-08 08:44 23.55833 90.35275 10797 ft 360 kts 233°
2026-05-08 08:45 23.54266 90.33118 11253 ft 371 kts 233°
2026-05-08 08:45 23.52714 90.30836 11896 ft 377 kts 238°
2026-05-08 08:45 23.51302 90.28406 12669 ft 379 kts 240°
2026-05-08 08:45 23.49959 90.25966 13475 ft 381 kts 240°
2026-05-08 08:46 23.48587 90.23463 14173 ft 384 kts 240°
2026-05-08 08:46 23.47198 90.20958 14861 ft 386 kts 239°
2026-05-08 08:46 23.45814 90.18494 15553 ft 387 kts 239°
2026-05-08 08:46 23.44397 90.15991 16265 ft 389 kts 239°
2026-05-08 08:47 23.42962 90.13472 16953 ft 391 kts 239°
2026-05-08 08:47 23.41518 90.10943 17596 ft 394 kts 238°
2026-05-08 08:47 23.40060 90.08394 18219 ft 397 kts 238°
2026-05-08 08:47 23.38613 90.05865 18775 ft 399 kts 238°
2026-05-08 08:48 23.37140 90.03293 19336 ft 400 kts 238°
2026-05-08 08:48 23.35661 90.00709 19925 ft 402 kts 238°
2026-05-08 08:48 23.34175 89.98114 20472 ft 404 kts 238°
2026-05-08 08:48 23.32699 89.95537 21005 ft 405 kts 239°
2026-05-08 08:49 23.31532 89.92739 21327 ft 410 kts 255°
2026-05-08 08:49 23.31177 89.89631 21791 ft 416 kts 268°
2026-05-08 08:49 23.31470 89.86482 22336 ft 421 kts 281°
2026-05-08 08:49 23.32312 89.83451 22886 ft 425 kts 285°
2026-05-08 08:50 23.33257 89.80394 23360 ft 428 kts 285°
2026-05-08 08:50 23.34198 89.77309 23743 ft 431 kts 284°
2026-05-08 08:50 23.35110 89.74189 24149 ft 432 kts 283°
2026-05-08 08:50 23.36004 89.71054 24582 ft 433 kts 283°
2026-05-08 08:51 23.36713 89.67895 24901 ft 428 kts 272°
2026-05-08 08:51 23.36589 89.64712 25175 ft 427 kts 258°
2026-05-08 08:51 23.35804 89.61595 25559 ft 426 kts 248°
2026-05-08 08:51 23.34429 89.58739 25970 ft 425 kts 238°
2026-05-08 08:52 23.32811 89.56083 26283 ft 427 kts 237°
2026-05-08 08:52 23.31140 89.53381 26642 ft 429 kts 237°
2026-05-08 08:52 23.29470 89.50674 27006 ft 430 kts 237°
2026-05-08 08:52 23.27810 89.47961 27389 ft 431 kts 237°
2026-05-08 08:53 23.26173 89.45265 27759 ft 432 kts 237°
2026-05-08 08:53 23.24516 89.42520 28079 ft 434 kts 238°
2026-05-08 08:53 23.22859 89.39764 28393 ft 435 kts 238°
2026-05-08 08:53 23.21203 89.37005 28691 ft 436 kts 238°
2026-05-08 08:54 23.19539 89.34233 28973 ft 438 kts 238°
2026-05-08 08:54 23.18435 89.32394 29152 ft 439 kts 238°
2026-05-08 08:54 23.16761 89.29608 29406 ft 440 kts 238°
2026-05-08 08:54 23.15086 89.26822 29657 ft 441 kts 238°
2026-05-08 08:55 23.13403 89.24024 29884 ft 442 kts 238°
2026-05-08 08:55 23.11737 89.21256 30071 ft 443 kts 238°
2026-05-08 08:55 23.10043 89.18445 30213 ft 444 kts 238°
2026-05-08 08:55 23.08343 89.15623 30341 ft 446 kts 238°
2026-05-08 08:56 23.06637 89.12796 30546 ft 446 kts 238°
2026-05-08 08:56 23.04931 89.09968 30817 ft 445 kts 238°
2026-05-08 08:56 23.03238 89.07164 31091 ft 443 kts 238°
2026-05-08 08:56 23.01545 89.04360 31341 ft 443 kts 238°
2026-05-08 08:57 22.99878 89.01602 31560 ft 443 kts 238°
2026-05-08 08:57 22.98179 88.98792 31795 ft 442 kts 238°
2026-05-08 08:57 22.96494 88.96004 32039 ft 441 kts 238°
2026-05-08 08:57 22.94806 88.93215 32289 ft 441 kts 238°
2026-05-08 08:58 22.93142 88.90468 32524 ft 440 kts 238°
2026-05-08 08:58 22.91482 88.87663 32760 ft 440 kts 239°
2026-05-08 08:58 22.89894 88.84823 32992 ft 439 kts 240°
2026-05-08 08:58 22.88334 88.81967 33179 ft 440 kts 240°
2026-05-08 08:59 22.86774 88.79107 33397 ft 439 kts 240°
2026-05-08 08:59 22.85232 88.76292 33626 ft 439 kts 240°
2026-05-08 08:59 22.83661 88.73445 33757 ft 440 kts 240°
2026-05-08 08:59 22.82074 88.70584 33802 ft 441 kts 239°
2026-05-08 09:00 22.78929 88.64933 33841 ft 438 kts 239°
2026-05-08 09:00 22.75779 88.59279 33846 ft 436 kts 239°
2026-05-08 09:01 22.72654 88.53673 33858 ft 436 kts 239°
2026-05-08 09:01 22.69673 88.47926 33857 ft 436 kts 249°
2026-05-08 09:02 22.68225 88.41550 33868 ft 441 kts 260°
2026-05-08 09:02 22.68225 88.34909 33860 ft 447 kts 271°
2026-05-08 09:03 22.68733 88.28186 33855 ft 448 kts 271°
2026-05-08 09:03 22.69227 88.21438 33848 ft 448 kts 271°
2026-05-08 09:04 22.69684 88.14706 33842 ft 447 kts 270°
2026-05-08 09:04 22.70119 88.08021 33839 ft 447 kts 270°
2026-05-08 09:05 22.70551 88.01294 33839 ft 446 kts 270°
2026-05-08 09:05 22.70976 87.94638 33841 ft 444 kts 270°
2026-05-08 09:06 22.71401 87.87959 33840 ft 444 kts 270°
2026-05-08 09:06 22.71823 87.81283 33839 ft 443 kts 270°
2026-05-08 09:07 22.72238 87.74653 33836 ft 443 kts 270°
2026-05-08 09:07 22.72655 87.67975 33834 ft 444 kts 270°
2026-05-08 09:08 22.73067 87.61319 33836 ft 444 kts 270°
2026-05-08 09:08 22.73476 87.54665 33836 ft 445 kts 270°
2026-05-08 09:09 22.73886 87.47947 33837 ft 446 kts 270°
2026-05-08 09:09 22.74291 87.41270 33834 ft 446 kts 270°
2026-05-08 09:10 22.74697 87.34535 33839 ft 447 kts 270°
2026-05-08 09:10 22.75097 87.27848 33835 ft 447 kts 270°
2026-05-08 09:11 22.75497 87.21115 33835 ft 448 kts 270°
2026-05-08 09:11 22.75895 87.14365 33845 ft 448 kts 270°
2026-05-08 09:12 22.76289 87.07652 33846 ft 448 kts 270°
2026-05-08 09:12 22.76682 87.00893 33843 ft 448 kts 270°
2026-05-08 09:13 22.77072 86.94143 33849 ft 448 kts 271°
2026-05-08 09:13 22.77456 86.87432 33849 ft 447 kts 271°
2026-05-08 09:14 22.77839 86.80700 33853 ft 447 kts 271°
2026-05-08 09:14 22.78219 86.73968 33863 ft 446 kts 271°
2026-05-08 09:15 22.78593 86.67298 33863 ft 446 kts 271°
2026-05-08 09:15 22.78966 86.60578 33874 ft 446 kts 271°
2026-05-08 09:16 22.79334 86.53903 33877 ft 446 kts 271°
2026-05-08 09:16 22.79703 86.47168 33881 ft 446 kts 271°
2026-05-08 09:17 22.80067 86.40485 33874 ft 445 kts 271°
2026-05-08 09:17 22.80427 86.33813 33881 ft 445 kts 271°
2026-05-08 09:18 22.80786 86.27093 33887 ft 446 kts 271°
2026-05-08 09:18 22.81144 86.20366 33828 ft 445 kts 271°
2026-05-08 09:19 22.81546 86.13704 33836 ft 445 kts 272°
2026-05-08 09:19 22.82119 86.07005 33829 ft 445 kts 273°
2026-05-08 09:20 22.82705 86.00341 33846 ft 445 kts 273°
2026-05-08 09:20 22.83268 85.93668 33861 ft 444 kts 273°
2026-05-08 09:21 22.83816 85.86990 33882 ft 444 kts 272°
2026-05-08 09:23 22.85704 85.63644 33913 ft 445 kts 272°
2026-05-08 09:23 22.86239 85.56944 33933 ft 445 kts 272°
2026-05-08 09:24 22.86770 85.50274 33926 ft 445 kts 272°
2026-05-08 09:24 22.87298 85.43614 33924 ft 445 kts 272°
2026-05-08 09:25 22.87827 85.36896 33939 ft 445 kts 272°
2026-05-08 09:25 22.88349 85.30222 33940 ft 445 kts 272°
2026-05-08 09:26 22.88870 85.23529 33941 ft 445 kts 272°
2026-05-08 09:26 22.89388 85.16848 33939 ft 445 kts 272°
2026-05-08 09:27 22.89907 85.10131 33933 ft 445 kts 272°
2026-05-08 09:27 22.90419 85.03467 33956 ft 445 kts 273°
2026-05-08 09:28 22.90930 84.96768 33964 ft 445 kts 273°
2026-05-08 09:28 22.91440 84.90069 33960 ft 445 kts 273°
2026-05-08 09:29 22.91943 84.83412 33961 ft 445 kts 273°